Location: *
(44.1392°N, 4.8079°E)
Time: 21:49:07
(UTC+00:00)

USA 305 - Pass Details

Date: 21 June 2021
Orbit: 558 x 580 km, 54.0° (Epoch: 13 July)

Event Time Altitude Azimuth Distance (km) Brightness Sun altitude
Exits shadow 01:10:47 51° 224° (SW) 709 2.9 -19.5°
Maximum altitude 01:11:48 84° 142° (SE) 566 2.7 -19.4°
Drops below altitude 10° 01:16:01 10° 55° (NE) 1,851 6.3 -19.1°
Sets 01:18:16 0° 55° (NE) 2,752 7.4 -19.0°
